SQ7PKP-15 Weather Reports


time (UTC)temp
C
wind
direction
speed
KPH
gust
KPH
rain 1hr
cm
rain 24hr
cm
rain mn
cm
humidity
%
barometer
mb
20260506140243 26 0.0 0.0 0.00 0.00 0.00 32 1004.8
20260506135245 25 0.0 0.0 0.00 0.00 0.00 34 1006.0
20260506134244 26 0.0 0.0 0.00 0.00 0.00 34 1004.3
20260506133244 25 0.0 0.0 0.00 0.00 0.00 35 1005.5
20260506132244 25 0.0 0.0 0.00 0.00 0.00 34 1005.4
20260506131243 25 0.0 0.0 0.00 0.00 0.00 36 1004.7
20260506130243 24 0.0 0.0 0.00 0.00 0.00 36 1004.9
20260506125244 24 0.0 0.0 0.00 0.00 0.00 36 1006.2
20260506124244 24 0.0 0.0 0.00 0.00 0.00 39 1004.8
20260506123259 23 0.0 0.0 0.00 0.00 0.00 40 1005.4
20260506122244 23 0.0 0.0 0.00 0.00 0.00 40 1005.4
20260506121244 23 0.0 0.0 0.00 0.00 0.00 41 1003.5
20260506120244 22 0.0 0.0 0.00 0.00 0.00 43 1007.1
20260506115244 23 0.0 0.0 0.00 0.00 0.00 42 1008.0
20260506114244 25 0.0 0.0 0.00 0.00 0.00 40 1003.6
20260506113247 23 0.0 0.0 0.00 0.00 0.00 43 1005.6
20260506112247 23 0.0 0.0 0.00 0.00 0.00 43 1005.9
20260506111300 23 0.0 0.0 0.00 0.00 0.00 45 1005.5
20260506110244 23 0.0 0.0 0.00 0.00 0.00 47 1005.0
20260506105244 22 0.0 0.0 0.00 0.00 0.00 48 1004.5
20260506104259 21 0.0 0.0 0.00 0.00 0.00 48 1007.5
20260506103244 22 0.0 0.0 0.00 0.00 0.00 46 1006.2
20260506102244 22 0.0 0.0 0.00 0.00 0.00 47 1005.7
20260506101246 22 0.0 0.0 0.00 0.00 0.00 47 1005.7
20260506100244 22 0.0 0.0 0.00 0.00 0.00 47 1006.7
20260506095243 22 0.0 0.0 0.00 0.00 0.00 46 1006.1
20260506094247 23 0.0 0.0 0.00 0.00 0.00 44 1005.3
20260506093244 22 0.0 0.0 0.00 0.00 0.00 45 1004.7
20260506092244 22 0.0 0.0 0.00 0.00 0.00 46 1005.5
20260506091243 22 0.0 0.0 0.00 0.00 0.00 48 1004.1
20260506090243 21 0.0 0.0 0.00 0.00 0.00 49 1004.9
20260506085247 21 0.0 0.0 0.00 0.00 0.00 51 1005.9
20260506084243 21 0.0 0.0 0.00 0.00 0.00 50 1005.2
20260506083259 21 0.0 0.0 0.00 0.00 0.00 51 1005.4
20260506082244 20 0.0 0.0 0.00 0.00 0.00 51 1005.5
20260506081244 20 0.0 0.0 0.00 0.00 0.00 52 1005.9
20260506080244 20 0.0 0.0 0.00 0.00 0.00 52 1003.7
20260506073244 17 0.0 0.0 0.00 0.00 0.00 59 1005.6
20260506072244 17 0.0 0.0 0.00 0.00 0.00 61 1005.9
20260506071243 18 0.0 0.0 0.00 0.00 0.00 59 1004.8
20260506070244 17 0.0 0.0 0.00 0.00 0.00 60 1005.5
20260506062244 16 0.0 0.0 0.00 0.00 0.00 63 1003.9
20260506061243 16 0.0 0.0 0.00 0.00 0.00 67 1004.1
20260506060247 15 0.0 0.0 0.00 0.00 0.00 67 1005.1
20260506051244 13 0.0 0.0 0.00 0.00 0.00 73 1004.5
20260506050244 13 0.0 0.0 0.00 0.00 0.00 77 1004.9
20260506044259 12 0.0 0.0 0.00 0.00 0.00 85 1004.9
20260506043247 11 0.0 0.0 0.00 0.00 0.00 83 1004.9
20260506042243 11 0.0 0.0 0.00 0.00 0.00 85 1005.1
20260506041243 11 0.0 0.0 0.00 0.00 0.00 86 1005.0
20260506040247 10 0.0 0.0 0.00 0.00 0.00 89 1005.1
20260506035244 10 0.0 0.0 0.00 0.00 0.00 93 1005.5
20260506034244 9 0.0 0.0 0.00 0.00 0.00 94 1005.9
20260506033244 9 0.0 0.0 0.00 0.00 0.00 94 1006.3
20260506032244 10 0.0 0.0 0.00 0.00 0.00 94 1006.1
20260506031247 10 0.0 0.0 0.00 0.00 0.00 95 1006.2
20260506030244 10 0.0 0.0 0.00 0.00 0.00 96 1006.3
20260506025243 10 0.0 0.0 0.00 0.00 0.00 96 1006.6
20260506024244 10 0.0 0.0 0.00 0.00 0.00 97 1006.1
20260506023243 10 0.0 0.0 0.00 0.00 0.00 98 1006.1
20260506022244 10 0.0 0.0 0.00 0.00 0.00 99 1006.1
20260506021244 10 0.0 0.0 0.00 0.00 0.00 98 1006.2
20260506020245 10 0.0 0.0 0.00 0.00 0.00 97 1006.5
20260506015243 11 0.0 0.0 0.00 0.00 0.00 98 1006.5
20260506014259 11 0.0 0.0 0.00 0.00 0.00 98 1006.3
20260506013302 11 0.0 0.0 0.00 0.00 0.00 97 1006.7
20260506012243 11 0.0 0.0 0.00 0.00 0.00 97 1006.4
20260506011244 11 0.0 0.0 0.00 0.00 0.00 97 1006.4
20260506010244 11 0.0 0.0 0.00 0.00 0.00 96 1006.5
20260506005247 11 0.0 0.0 0.00 0.00 0.00 96 1006.5
20260506004331 12 0.0 0.0 0.00 0.00 0.00 94 1006.6
20260506003244 12 0.0 0.0 0.00 0.00 0.00 95 1006.4
20260506002244 12 0.0 0.0 0.00 0.00 0.00 94 1006.6
20260506001259 12 0.0 0.0 0.00 0.00 0.00 94 1006.3
20260506000243 12 0.0 0.0 0.00 0.00 0.00 94 1006.4
20260505235243 12 0.0 0.0 0.00 0.00 0.00 93 1006.5
20260505234247 12 0.0 0.0 0.00 0.00 0.00 93 1006.4
20260505233314 12 0.0 0.0 0.00 0.00 0.00 92 1006.5
20260505232244 12 0.0 0.0 0.00 0.00 0.00 89 1006.9
20260505231300 12 0.0 0.0 0.00 0.00 0.00 89 1007.1
20260505230243 12 0.0 0.0 0.00 0.00 0.00 88 1007.3
20260505225244 13 0.0 0.0 0.00 0.00 0.00 87 1007.1
20260505224244 13 0.0 0.0 0.00 0.00 0.00 87 1007.2
20260505223247 13 0.0 0.0 0.00 0.00 0.00 86 1007.1
20260505222244 13 0.0 0.0 0.00 0.00 0.00 85 1007.2
20260505221243 13 0.0 0.0 0.00 0.00 0.00 84 1006.9
20260505220259 14 0.0 0.0 0.00 0.00 0.00 84 1006.9
20260505215243 14 0.0 0.0 0.00 0.00 0.00 83 1007.3
20260505214244 14 0.0 0.0 0.00 0.00 0.00 82 1007.0
20260505213244 15 0.0 0.0 0.00 0.00 0.00 82 1006.8
20260505212247 15 0.0 0.0 0.00 0.00 0.00 82 1007.2
20260505211244 15 0.0 0.0 0.00 0.00 0.00 80 1007.1
20260505210243 15 0.0 0.0 0.00 0.00 0.00 80 1006.9
20260505205243 15 0.0 0.0 0.00 0.00 0.00 78 1007.0
20260505204243 15 0.0 0.0 0.00 0.00 0.00 77 1007.4
20260505203244 16 0.0 0.0 0.00 0.00 0.00 75 1006.8
20260505202244 16 0.0 0.0 0.00 0.00 0.00 74 1007.2
20260505201259 16 0.0 0.0 0.00 0.00 0.00 72 1007.1
20260505200243 17 0.0 0.0 0.00 0.00 0.00 71 1006.9
20260505195244 17 0.0 0.0 0.00 0.00 0.00 70 1006.7
20260505194315 17 0.0 0.0 0.00 0.00 0.00 69 1006.8
20260505193244 18 0.0 0.0 0.00 0.00 0.00 67 1006.7
20260505192259 18 0.0 0.0 0.00 0.00 0.00 66 1006.5
20260505191244 18 0.0 0.0 0.00 0.00 0.00 65 1006.5
20260505190247 18 0.0 0.0 0.00 0.00 0.00 63 1006.2
20260505185259 18 0.0 0.0 0.00 0.00 0.00 59 1006.0
20260505184244 18 0.0 0.0 0.00 0.00 0.00 53 1005.9
20260505183244 18 0.0 0.0 0.00 0.00 0.00 48 1007.1
20260505182314 19 0.0 0.0 0.00 0.00 0.00 48 1006.9
20260505181243 20 0.0 0.0 0.00 0.00 0.00 44 1006.7
20260505180314 20 0.0 0.0 0.00 0.00 0.00 41 1006.2
20260505175243 21 0.0 0.0 0.00 0.00 0.00 41 1006.3
20260505174244 22 0.0 0.0 0.00 0.00 0.00 39 1006.5
20260505173247 22 0.0 0.0 0.00 0.00 0.00 36 1007.0
20260505172243 23 0.0 0.0 0.00 0.00 0.00 32 1006.3
20260505171243 25 0.0 0.0 0.00 0.00 0.00 28 1005.8
20260505170316 25 0.0 0.0 0.00 0.00 0.00 27 1005.5
20260505165247 26 0.0 0.0 0.00 0.00 0.00 25 1004.7
20260505164244 25 0.0 0.0 0.00 0.00 0.00 25 1005.8
20260505163244 26 0.0 0.0 0.00 0.00 0.00 23 1005.4
20260505162243 26 0.0 0.0 0.00 0.00 0.00 23 1006.2
20260505161244 27 0.0 0.0 0.00 0.00 0.00 22 1005.7
20260505160244 27 0.0 0.0 0.00 0.00 0.00 21 1004.9
20260505153244 27 0.0 0.0 0.00 0.00 0.00 19 1006.9
20260505152259 28 0.0 0.0 0.00 0.00 0.00 19 1003.8
20260505151259 27 0.0 0.0 0.00 0.00 0.00 19 1005.0
20260505150318 27 0.0 0.0 0.00 0.00 0.00 19 1005.1